Location: Castrojimeno
(41.3966°N, 3.8473°W)
Time: 07:32:05
(UTC+00:00)

Daily predictions for brighter satellites

Satellite Brightness Start Highest point End
(mag) Time Altitude Azimuth Time Altitude Azimuth Time Altitude Azimuth
Okean O Rocket 3.5 19:53:55 10° E 19:56:14 14° ENE 19:58:33 10° NNE
Cosmos 292 Rocket 4.4 19:53:15 10° NNW 19:57:55 59° WSW 20:02:32 10° S
Cosmos 2333 Rocket 4.1 19:55:43 10° N 19:59:16 17° NE 20:02:50 10° E
NOSS 3-3 (A) 3.6 19:56:04 10° SSW 20:00:58 63° ESE 20:06:41 10° NE
Okean 1 Rocket 3.4 19:57:10 10° SSW 20:01:32 74° W 20:05:59 10° N
Cosmos 2100 Rocket 4.1 19:57:39 10° S 20:03:54 87° W 20:10:15 10° N
SL-24 R/B 4.1 20:02:37 10° NNE 20:06:59 87° WNW 20:11:17 10° SSW
Cosmos 1452 Rocket 4.0 20:02:29 10° SSW 20:07:40 68° WNW 20:12:53 10° NNE
CZ-4B DEB 4.4 20:02:57 10° SSE 20:08:22 62° ENE 20:13:50 10° N
Milstar 3 4.0 20:03:27 10° WSW 20:08:50 26° S 20:15:03 10° SE
Cosmos 2360 Rocket 4.3 20:06:57 10° NNE 20:09:00 12° NE 20:11:04 10° ENE
CZ-4B R/B 3.7 20:06:13 10° SE 20:11:36 47° ENE 20:16:57 10° N
SL-24 R/B 4.3 20:07:13 10° NNE 20:11:37 75° ESE 20:16:38 10° S
Helios 1A Rocket 2.5 20:08:48 10° NNE 20:11:50 44° E 20:14:50 10° S
Cosmos 2233 Rocket 4.3 20:06:47 10° SSE 20:12:37 46° E 20:18:26 10° NNE
Cosmos 1741 Rocket 4.2 20:08:16 10° NNW 20:13:35 76° WSW 20:18:49 10° SSE
Cosmos 1302 Rocket 4.0 20:09:53 10° SSW 20:15:03 85° ESE 20:20:15 10° NNE
Cosmos 909 Rocket 4.0 20:11:47 10° SSW 20:18:11 70° ESE 20:24:29 10° NE
Okean-O 4.0 20:14:53 11° ESE 20:18:12 24° ENE 20:21:40 10° NNE
SPOT 5 3.8 20:22:28 10° S 20:26:33 42° W 20:30:45 10° NNW
GEOS 3 Rocket 3.7 20:22:54 12° SE 20:27:51 76° NE 20:33:14 10° NNW
ADEOS 3.7 20:25:07 10° SSE 20:30:13 61° ENE 20:35:22 10° N
Gbstr 26 Del rocket 3.6 20:26:54 10° WNW 20:31:58 53° SW 20:35:24 15° SSE
Cosmos 1725 Rocket 4.1 20:26:15 10° S 20:32:31 85° W 20:38:47 10° N
NOSS 3-3 (C) 3.6 20:28:25 10° SW 20:33:28 89° NW 20:39:27 10° NE
Meteor 1-31 Rocket 3.4 20:30:44 10° S 20:34:06 47° W 20:37:27 10° NNW
USA 215 4.3 20:30:45 10° SSE 20:36:42 37° SW 20:42:40 10° WNW
Feng Yun 1-1 Rocket 4.3 20:31:25 10° S 20:36:48 78° WSW 20:42:16 10° NNW
Longmarch 3A Rocket 3.9 20:33:16 10° WSW 20:37:57 16° SSW 20:40:05 12° S
Cosmos 2322 Rocket 3.8 20:37:53 10° N 20:42:09 21° NE 20:45:49 12° E
Cosmos 2082 Rocket 2.9 20:37:34 10° SW 20:43:11 59° WNW 20:48:50 10° NNE
Cosmos 2016 Rocket 4.3 20:40:08 10° SSW 20:46:22 73° W 20:52:34 10° N
Cosmos 2237 4.2 20:41:21 10° NNW 20:47:07 79° ENE 20:51:30 18° SSE
Tsikada Rocket 3.9 20:41:43 10° N 20:47:54 75° E 20:53:27 13° SSE
DELTA 2 R/B (1) 3.5 20:43:29 10° W 20:49:03 75° S 20:53:40 15° E
Meteor 2-12 Rocket 4.4 20:43:05 10° N 20:49:12 86° E 20:55:06 11° S
CZ-4B R/B 4.3 20:49:58 16° E 20:50:50 17° ENE 20:53:10 10° NNE
Cosmos 2369 3.8 20:45:47 10° NNW 20:51:32 84° WSW 20:56:03 17° SSE
Cosmos 2098 Rocket 4.4 20:53:25 21° ESE 20:54:44 24° E 20:58:14 10° NE
YAOGAN 11 4.2 20:50:26 10° NNE 20:54:49 58° E 20:58:38 14° S
IRS-1A Rocket 4.4 20:50:45 14° SSE 20:55:54 88° ENE 21:01:51 10° NNW
Cosmos 2151 3.6 20:53:43 10° N 20:57:32 36° ENE 20:59:05 26° ESE
Cosmos 1782 4.3 20:57:01 10° SW 21:00:12 32° WNW 21:03:25 10° NNW
Ariane Rocket 4.2 20:59:02 20° ESE 21:01:20 28° ENE 21:05:36 10° N
Cosmos 1626 Rocket 3.6 20:59:05 10° N 21:03:26 63° E 21:05:44 27° SSE
Spot 2 Rocket 3.4 21:03:00 21° SSE 21:06:27 85° ENE 21:11:30 10° NNW
ERS-1 Rocket 4.1 21:04:46 10° SSW 21:09:28 41° W 21:14:13 10° NNW
Cosmos 2278 4.3 21:04:14 10° NNW 21:09:44 45° ENE 21:12:37 25° ESE
Cosmos 1763 Rocket 4.5 21:10:52 25° ESE 21:11:43 26° E 21:16:04 10° NE
SPOT 3 Rocket 4.0 21:09:24 27° SE 21:11:49 45° ENE 21:16:42 10° N
USA 186 1.1 21:12:57 67° SSE 21:13:16 84° ENE 21:16:01 10° N
SL-16 R/B 2.3 21:08:12 10° NNW 21:13:50 62° ENE 21:16:43 29° SE
USA 290 3.8 21:18:07 21° ENE 21:18:07 21° ENE 21:19:37 10° NE
CZ-4 R/B 3.8 21:15:09 10° SW 21:17:17 15° W 21:19:26 10° NW
MOS 1-B 4.3 21:13:25 22° SSE 21:17:20 88° WSW 21:23:11 10° NNW
Cosmos 1606 Rocket 4.4 21:17:15 29° E 21:17:40 29° E 21:21:24 10° NNE
Cosmos 1513 Rocket 4.5 21:15:01 20° S 21:19:23 64° E 21:25:27 10° NNE
Cosmos 1933 3.0 21:19:51 34° S 21:21:25 81° E 21:25:14 10° N
Cosmos 1464 Rocket 4.3 21:18:41 28° SE 21:21:28 45° E 21:27:16 10° NNE
Cosmos 1461 4.1 21:19:51 10° WSW 21:23:19 37° NW 21:26:47 10° NNE
ISS -0.8 21:22:31 10° NW 21:24:25 14° N 21:26:19 10° NE
CZ-4B R/B 3.8 21:23:15 33° ESE 21:24:53 46° ENE 21:29:29 10° N
BREEZE-M DEB (TANK) 4.2 21:23:51 10° WNW 21:26:10 18° NNW 21:27:47 10° NNE
COSMOS 2406 3.9 21:21:42 10° SW 21:27:19 55° WNW 21:32:58 10° NNE
Cosmos 1980 Rocket 4.3 21:23:17 10° NW 21:27:26 21° W 21:31:32 10° SSW
Terra 3.5 21:24:47 10° SSW 21:28:48 28° W 21:32:52 10° NW
Okean O Rocket 2.1 21:29:45 26° SSW 21:31:57 53° W 21:36:10 10° NNW
Meteor 1-20 Rocket 4.3 21:32:53 10° NNW 21:38:31 77° W 21:41:27 30° S
Cosmos 1437 Rocket 3.4 21:37:04 23° SW 21:38:53 46° WNW 21:42:22 10° N
Cosmos 1544 Rocket 4.4 21:36:03 15° SSW 21:39:29 47° W 21:43:41 10° N
Cosmos 1072 Rocket 4.5 21:36:50 30° S 21:40:06 70° E 21:46:24 10° NNE
Cosmos 1777 Rocket 4.2 21:36:45 10° NNW 21:41:54 56° ENE 21:43:21 41° ESE
Cosmos 2333 Rocket 2.2 21:38:35 10° NNW 21:44:19 86° WSW 21:46:30 40° SSE
Cosmos 1833 4.2 21:44:13 38° SSE 21:46:11 58° ESE 21:51:42 10° NNE
Okean 1-7 Rocket 3.6 21:45:18 10° N 21:49:44 61° E 21:50:19 55° ESE
CZ-2C R/B 3.7 21:52:45 28° NNE 21:52:45 28° NNE 21:54:18 10° N
Cosmos 1503 Rocket 4.3 21:46:54 10° N 21:51:57 52° ENE 21:53:04 44° ESE
Cosmos 2360 Rocket 2.3 21:48:27 10° NNW 21:54:07 67° ENE 21:55:44 46° SE
Okean-O 4.0 21:52:12 21° SW 21:54:17 31° W 21:58:12 10° NNW
Cosmos 2034 Rocket 4.1 21:58:36 43° SSE 22:00:31 61° E 22:06:46 10° NNE
Fengyun 1C 4.5 21:59:46 52° SSE 22:01:06 83° ENE 22:06:23 10° NNW
Cosmos 1486 Rocket 3.9 21:57:38 10° NNW 22:02:55 83° WSW 22:04:10 54° S
Cosmos 2333 4.3 21:58:34 10° NNW 22:04:17 67° ENE 22:05:42 49° SE
Cosmos 2219 Rocket 2.6 22:01:16 10° NNW 22:06:49 52° ENE 22:08:05 43° ESE
Cosmos 1354 Rocket 4.4 22:01:54 10° N 22:06:59 48° ENE 22:07:46 44° E
Cosmos 540 Rocket 3.3 22:07:45 58° S 22:08:43 78° ESE 22:13:53 10° NNE
IRS-1C Rocket 4.2 22:08:06 47° SSW 22:09:32 70° WSW 22:14:49 10° NNW
Cosmos 1805 3.9 22:06:57 10° NNW 22:09:31 43° WNW 22:09:31 43° WNW
Cosmos 1825 Rocket 3.4 22:09:22 10° N 22:13:44 88° W 22:13:51 85° SSW
Nadezhda 4 Rocket 3.9 22:12:02 10° N 22:18:10 79° W 22:20:00 48° S
Helios 1A 4.2 22:15:53 10° NNE 22:18:07 28° NE 22:18:07 28° NE
Cosmos 1953 Rocket 3.8 22:16:16 10° N 22:20:10 58° NE 22:20:10 58° NE
Meteor 2-10 4.4 22:16:42 10° NNW 22:22:25 68° W 22:23:48 50° SSW
Cosmos 1634 Rocket 4.2 22:22:33 48° ESE 22:23:15 50° E 22:29:12 10° NNE
CZ-4B R/B 4.3 22:24:40 24° W 22:24:40 24° W 22:27:15 10° NW
Cosmos 2322 Rocket 2.3 22:21:01 10° NNW 22:26:37 63° WSW 22:27:37 54° SSW
Cosmos 468 Rocket 3.9 22:30:14 67° E 22:30:14 67° E 22:35:22 10° NNE
Cosmos 2058 Rocket 3.6 22:30:59 50° NE 22:30:59 50° NE 22:34:25 10° NNE
BREEZE-M DEB 4.2 22:30:32 10° WSW 22:35:02 78° NNW 22:44:51 10° ENE
DELTA 2 R/B (1) 4.0 22:29:51 10° W 22:34:21 46° SW 22:34:21 46° SW
Geosat 3.8 22:30:45 10° NNE 22:35:38 76° E 22:35:38 76° E
Cosmos 2195 Rocket 4.4 22:30:13 10° N 22:36:26 84° W 22:37:38 60° S
Cosmos 1076 Rocket 3.8 22:33:09 10° NNW 22:36:55 60° WNW 22:36:55 60° WNW
Ariane Rocket 4.0 22:39:06 32° WSW 22:40:03 35° W 22:44:41 10° NNW
NOSS 3-4 (A) 4.1 22:33:29 10° NW 22:40:26 63° WSW 22:42:32 48° S
Cosmos 2026 Rocket 3.9 22:34:05 10° N 22:40:30 87° E 22:41:40 63° SSE
Cosmos 44 3.8 22:35:18 10° NNW 22:40:35 55° NE 22:41:01 53° ENE
NOSS 3-4 (C) 4.1 22:34:07 10° NW 22:41:06 64° WSW 22:43:10 48° S
Cosmos 2237 Rocket 4.3 22:41:14 10° N 22:44:48 17° NE 22:47:09 13° ENE
Cosmos 1627 Rocket 4.4 22:40:01 10° N 22:46:27 89° W 22:47:33 64° S
USA 234 4.2 22:45:33 10° ENE 22:49:36 31° E 22:49:36 31° E
ARIANE 5 R/B 4.1 22:52:41 28° NE 22:52:41 28° NE 22:55:58 10° N
Meteor 1-26 Rocket 4.4 22:52:00 56° SW 22:52:53 65° WNW 22:58:32 10° N
ALOS 2 4.3 22:54:46 24° NE 22:54:46 24° NE 22:57:49 10° NNE
Helios 1B rocket 4.0 22:58:18 27° N 22:58:18 27° N 23:00:07 10° N
SL-16 R/B 4.1 22:53:34 10° WNW 22:57:20 18° W 22:58:34 17° WSW
COSMOS 2428 3.3 22:53:33 10° NNW 22:59:00 44° ENE 22:59:34 43° ENE
ISS -1.2 22:59:17 10° NW 23:01:10 21° N 23:01:10 21° N
Cosmos 1898 Rocket 3.9 22:59:39 10° N 23:04:33 51° ENE 23:04:33 51° ENE
Meteor 2-2 Rocket 4.5 23:05:01 55° WSW 23:05:50 61° WNW 23:11:32 10° N
Cosmos 1536 4.5 23:09:27 10° NNW 23:11:30 30° NNW 23:11:30 30° NNW
Cosmos-2242 4.4 23:14:02 32° WNW 23:14:02 32° WNW 23:17:16 10° NNW
Cosmos 841 Rocket 3.6 23:27:23 70° NNW 23:27:23 70° NNW 23:32:07 10° NNE
Cosmos 2297 Rocket 2.8 23:27:59 46° ENE 23:27:59 46° ENE 23:32:23 10° NNE
NOSS 0 Rocket 4.1 23:24:13 10° NNW 23:30:19 61° ENE 23:30:48 59° E
Cosmos 2142 Rocket 4.3 23:30:57 83° SSE 23:31:11 86° E 23:37:26 10° N
Cosmos 2180 Rocket 4.3 23:32:27 83° SE 23:32:38 85° E 23:38:58 10° N
Spot 4 4.3 23:36:12 58° N 23:36:12 58° N 23:40:05 10° N
Cosmos 2360 Rocket 4.1 23:33:56 10° WNW 23:37:27 17° W 23:37:28 17° W
Meteor 1-14 Rocket 4.2 23:32:03 10° NNW 23:37:12 74° NW 23:37:12 74° NW
Cosmos 2221 3.8 23:39:35 37° NNW 23:39:35 37° NNW 23:42:18 10° N
Cosmos 2322 3.8 23:37:03 10° NNW 23:42:12 68° WNW 23:42:12 68° WNW
ACS3 Solar Sail 3.5 23:42:21 10° NE 23:46:10 18° E 23:46:10 18° E
Cosmos 2219 Rocket 3.9 23:46:03 10° NW 23:49:46 22° W 23:49:46 22° W
